Back to catalog

STARLINK-2439

AliveCommunicationsVLEO
NORAD 48104·PAYLOAD·🇺🇸 United States

Launched Apr 7, 2021 from Cape Canaveral Space Force Station

Loading…

Next Passes (next 24 hours)

TLE

FreshSource: CelesTrak SupGP

Epoch: Sep 15, 2026, 01:58 UTC

1 48104C 21027N   26258.08243056  .00041904  00000+0  13474-2 0  2586
2 48104  53.1588 351.3926 0001229  93.5003 184.7318 15.31685076    17

Track STARLINK-2439 in real time with AllMySat

Download on the App Store